Home   Weather   French Lick   Past weeks

Flag for USA Past Weather in French Lick, Indiana, USA — Yesterday and Last 2 Weeks

52 °F


Feels Like: 49 °F
Forecast: 46 / 72 °F
Wind: 9 mph from Southeast

Location: Monroe County Airport

Current Time: Oct 26, 2016 at 1:45:30 AM

Latest Report: Oct 26, 2016 at 12:53 AM

Visibility: 10 mi

Pressure: 30.29 "Hg

Humidity: 64%

Dew Point: 40 °F

Location of French LickLocation

Past Weather in French Lick — Graph


French Lick Temperature Yesterday

Maximum temperature yesterday: 64 °F (at 4:53 PM)
Minimum temperature yesterday: 38 °F (at 5:53 AM)
Average temperature yesterday: 51 °F

High & Low Weather Summary for the Past Weeks

High83 °F (Oct 17, 2:53 PM)93% (Oct 12, 7:53 PM)30.41 "Hg (Oct 12, 7:53 PM)
Low38 °F (Oct 25, 5:53 AM)36% (Oct 11, 3:53 PM)29.73 "Hg (Oct 17, 6:53 PM)
Average60 °F71%30.09 "Hg
* Reported Oct 10 11:53 PM — Oct 25 11:53 PM, French Lick, Weather by CustomWeather, © 2016

Note: Actual official high and low records may vary slightly from our data, if they occured in-between our weather recording intervals... More about our weather records


French Lick Weather History for the Previous 24 Hours

Scroll right to see more
Time TempWeatherWind HumidityBarometerVisibility
11:53 PM
Tue, Oct 25
52 °FOvercast.9 mph64%30.31 "Hg10 mi
10:53 PM53 °FOvercast.9 mph61%30.32 "Hg10 mi
9:53 PM53 °FOvercast.9 mph61%30.31 "Hg10 mi
8:53 PM54 °FLight rain. Overcast.6 mph59%30.33 "Hg10 mi
7:53 PM51 °FLight rain. Clear.5 mph63%30.31 "Hg10 mi
6:53 PM56 °FClear.6 mph51%30.30 "Hg10 mi
5:53 PM62 °FSunny.8 mph41%30.29 "Hg10 mi
4:53 PM64 °FPartly sunny.8 mph37%30.30 "Hg10 mi
3:53 PM63 °FOvercast.5 mph38%30.31 "Hg10 mi
2:53 PM62 °FScattered clouds.5 mph39%30.34 "Hg10 mi
1:53 PM60 °FSunny.5 mph47%30.36 "Hg10 mi
12:53 PM58 °FSunny.8 mph51%30.40 "Hg10 mi
11:53 AM54 °FSunny.7 mph59%30.40 "Hg10 mi
10:53 AM51 °FSunny.8 mph66%30.41 "Hg10 mi
9:53 AM47 °FSunny.6 mph74%30.40 "Hg10 mi
8:53 AM44 °FSunny.5 mph79%30.39 "Hg10 mi
7:53 AM42 °FClear.3 mph82%30.38 "Hg10 mi
6:53 AM43 °FClear.3 mph82%30.39 "Hg10 mi
5:53 AM38 °FClear.No wind90%30.37 "Hg10 mi
4:53 AM41 °FClear.No wind86%30.36 "Hg10 mi
3:53 AM43 °FClear.No wind82%30.37 "Hg10 mi
2:53 AM45 °FClear.3 mph76%30.37 "Hg10 mi
1:53 AM46 °FClear.5 mph77%30.37 "Hg10 mi
Weather by CustomWeather, © 2016

See weather overviewHow to use our weather pages